| time (UTC) | temp F | wind direction | speed MPH | gust MPH | rain 1hr in | rain 24hr in | rain mn in | humidity % | barometer mb |
| 20260506130004 | 53 | 90 | 0.0 | 13.0 | 0.00 | 0.00 | 0.00 | 13 | 830.2 |
| 20260505204004 | 73 | 339 | 4.0 | 13.0 | 0.00 | 0.00 | 0.00 | 47 | 830.2 |
| 20260505201003 | 72 | 315 | 6.0 | 16.0 | 0.00 | 0.00 | 0.00 | 49 | 948.6 |
| 20260505195004 | 71 | 328 | 4.0 | 17.0 | 0.00 | 0.00 | 0.00 | 49 | 952.3 |
| 20260505194004 | 71 | 319 | 9.0 | 14.0 | 0.00 | 0.00 | 0.00 | 50 | 1013.5 |
| 20260505190004 | 70 | 319 | 7.0 | 14.0 | 0.00 | 0.00 | 0.00 | 50 | 1013.7 |
| 20260505183004 | 69 | 355 | 5.0 | 13.0 | 0.00 | 0.00 | 0.00 | 51 | 952.8 |
| 20260505181004 | 68 | 4 | 2.0 | 7.0 | 0.00 | 0.00 | 0.00 | 53 | 891.4 |
| 20260505175003 | 67 | 331 | 5.0 | 12.0 | 0.00 | 0.00 | 0.00 | 55 | 1013.9 |
| 20260505174003 | 67 | 5 | 2.0 | 10.0 | 0.00 | 0.00 | 0.00 | 55 | 888.8 |
| 20260505173004 | 66 | 293 | 5.0 | 12.0 | 0.00 | 0.00 | 0.00 | 57 | 1013.9 |
| 20260505172003 | 66 | 334 | 3.0 | 15.0 | 0.00 | 0.00 | 0.00 | 57 | 1014.0 |
| 20260505170004 | 65 | 302 | 2.0 | 10.0 | 0.00 | 0.00 | 0.00 | 59 | 1014.0 |
| 20260505165004 | 65 | 323 | 3.0 | 13.0 | 0.00 | 0.00 | 0.00 | 59 | 1014.1 |
| 20260505164004 | 64 | 321 | 4.0 | 13.0 | 0.00 | 0.00 | 0.00 | 60 | 1014.2 |
| 20260505163004 | 64 | 298 | 3.0 | 13.0 | 0.00 | 0.00 | 0.00 | 61 | 952.7 |
| 20260505162004 | 63 | 311 | 4.0 | 9.0 | 0.00 | 0.00 | 0.00 | 62 | 1014.1 |
| 20260505161003 | 62 | 300 | 1.0 | 9.0 | 0.00 | 0.00 | 0.00 | 62 | 1014.1 |
| 20260505153003 | 57 | 325 | 1.0 | 7.0 | 0.00 | 0.00 | 0.00 | 19 | 891.4 |
| 20260505151004 | 54 | 273 | 0.0 | 2.0 | 0.00 | 0.00 | 0.00 | 3 | 1014.3 |